Location: Berg
(47.2344°N, 9.5296°E)
Time: 20:30:38
(UTC+00:00)

SEEDS - Visible Passes

Search period start: 05 December 2021 00:00
Search period end: 15 December 2021 00:00
Orbit: 582 x 603 km, 97.6° (Epoch: 05 December)

Date Brightness Start Highest point End Pass type
(mag) Time Alt. Az. Time Alt. Az. Time Alt. Az.
10 Dec ? 16:08:48 10° SW 16:11:33 17° W 16:14:19 10° NW visible
11 Dec ? 16:18:17 10° WSW 16:20:28 14° W 16:22:39 10° WNW visible
12 Dec ? 16:28:08 10° WSW 16:29:23 11° W 16:30:39 10° WNW visible
